| time (UTC) | temp C | wind direction | speed KPH | gust KPH | rain 1hr cm | rain 24hr cm | rain mn cm | humidity % | barometer mb |
| 20260504045634 | 5 | 311 | 0.0 | 0.0 | 0.00 | 0.00 | 0.00 | 85 | 1408.6 |
| 20260504045129 | 4 | 311 | 0.0 | 0.0 | 0.00 | 0.00 | 0.00 | 84 | 1408.6 |
| 20260504044623 | 4 | 311 | 0.0 | 0.0 | 0.00 | 0.00 | 0.00 | 83 | 1408.6 |
| 20260504044117 | 4 | 311 | 0.0 | 0.0 | 0.00 | 0.00 | 0.00 | 83 | 1408.4 |
| 20260504043611 | 4 | 311 | 0.0 | 0.0 | 0.00 | 0.00 | 0.00 | 82 | 1408.6 |
| 20260504043105 | 4 | 311 | 0.0 | 0.0 | 0.00 | 0.00 | 0.00 | 82 | 1408.6 |
| 20260504042559 | 3 | 311 | 0.0 | 0.0 | 0.00 | 0.00 | 0.00 | 82 | 1408.4 |
| 20260504041546 | 4 | 311 | 0.0 | 0.0 | 0.00 | 0.00 | 0.00 | 80 | 1408.3 |
| 20260504041041 | 4 | 311 | 0.0 | 0.0 | 0.00 | 0.00 | 0.00 | 81 | 1408.3 |
| 20260504040535 | 4 | 311 | 0.0 | 0.0 | 0.00 | 0.00 | 0.00 | 80 | 1408.3 |
| 20260504040030 | 4 | 311 | 0.0 | 0.0 | 0.00 | 0.00 | 0.00 | 80 | 1408.4 |
| 20260504035523 | 4 | 311 | 0.0 | 0.0 | 0.00 | 0.00 | 0.00 | 81 | 1408.4 |
| 20260504035017 | 4 | 311 | 0.0 | 0.0 | 0.00 | 0.00 | 0.00 | 80 | 1408.4 |
| 20260504034005 | 4 | 311 | 0.0 | 0.0 | 0.00 | 0.00 | 0.00 | 80 | 1408.4 |
| 20260504033500 | 4 | 311 | 0.0 | 0.0 | 0.00 | 0.00 | 0.00 | 80 | 1408.4 |
| 20260504032953 | 5 | 311 | 0.0 | 0.0 | 0.00 | 0.00 | 0.00 | 80 | 1408.4 |
| 20260504032447 | 5 | 311 | 0.0 | 0.0 | 0.00 | 0.00 | 0.00 | 79 | 1408.4 |
| 20260504031940 | 5 | 311 | 0.0 | 0.0 | 0.00 | 0.00 | 0.00 | 79 | 1408.4 |
| 20260504031436 | 5 | 311 | 0.0 | 0.0 | 0.00 | 0.00 | 0.00 | 79 | 1408.6 |
| 20260504030929 | 5 | 311 | 0.0 | 0.0 | 0.00 | 0.00 | 0.00 | 79 | 1408.6 |
| 20260504030423 | 5 | 311 | 0.0 | 0.0 | 0.00 | 0.00 | 0.00 | 78 | 1408.6 |
| 20260504025917 | 5 | 311 | 0.0 | 0.0 | 0.00 | 0.00 | 0.00 | 78 | 1408.6 |
| 20260504025411 | 5 | 311 | 0.0 | 0.0 | 0.00 | 0.00 | 0.00 | 78 | 1408.7 |
| 20260504024359 | 5 | 311 | 0.0 | 0.0 | 0.00 | 0.00 | 0.00 | 77 | 1408.6 |
| 20260504023853 | 5 | 311 | 0.0 | 0.0 | 0.00 | 0.00 | 0.00 | 77 | 1408.7 |
| 20260504023347 | 5 | 311 | 0.0 | 0.0 | 0.00 | 0.00 | 0.00 | 76 | 1408.8 |
| 20260504022841 | 6 | 311 | 0.0 | 0.0 | 0.00 | 0.00 | 0.00 | 76 | 1408.7 |
| 20260504022335 | 6 | 311 | 0.0 | 1.6 | 0.00 | 0.00 | 0.00 | 76 | 1408.7 |
| 20260504020817 | 6 | 311 | 0.0 | 3.2 | 0.00 | 0.00 | 0.00 | 74 | 1408.7 |
| 20260504020311 | 6 | 311 | 0.0 | 0.0 | 0.00 | 0.00 | 0.00 | 72 | 1408.6 |
| 20260504015806 | 6 | 311 | 0.0 | 0.0 | 0.00 | 0.00 | 0.00 | 71 | 1408.7 |
| 20260504015259 | 6 | 311 | 0.0 | 0.0 | 0.00 | 0.00 | 0.00 | 71 | 1408.7 |
| 20260504014753 | 7 | 311 | 0.0 | 0.0 | 0.00 | 0.00 | 0.00 | 71 | 1408.7 |
| 20260504014247 | 7 | 311 | 0.0 | 0.0 | 0.00 | 0.00 | 0.00 | 70 | 1408.7 |
| 20260504013740 | 7 | 311 | 0.0 | 0.0 | 0.00 | 0.00 | 0.00 | 70 | 1408.6 |
| 20260504013235 | 7 | 311 | 0.0 | 3.2 | 0.00 | 0.00 | 0.00 | 69 | 1408.6 |
| 20260504012223 | 7 | 287 | 0.0 | 3.2 | 0.00 | 0.00 | 0.00 | 66 | 1408.4 |
| 20260504011718 | 8 | 218 | 0.0 | 0.0 | 0.00 | 0.00 | 0.00 | 66 | 1408.3 |
| 20260504011211 | 8 | 218 | 0.0 | 0.0 | 0.00 | 0.00 | 0.00 | 66 | 1408.3 |
| 20260504010159 | 8 | 218 | 0.0 | 0.0 | 0.00 | 0.00 | 0.00 | 64 | 1408.3 |
| 20260504005653 | 9 | 218 | 0.0 | 0.0 | 0.00 | 0.00 | 0.00 | 63 | 1408.3 |
| 20260504005147 | 9 | 218 | 0.0 | 0.0 | 0.00 | 0.00 | 0.00 | 61 | 1408.3 |
| 20260504004641 | 9 | 218 | 0.0 | 0.0 | 0.00 | 0.00 | 0.00 | 60 | 1408.3 |
| 20260504003629 | 10 | 218 | 0.0 | 0.0 | 0.00 | 0.00 | 0.00 | 58 | 1408.3 |
| 20260504003123 | 10 | 218 | 0.0 | 0.0 | 0.00 | 0.00 | 0.00 | 57 | 1408.3 |
| 20260504002616 | 11 | 218 | 0.0 | 0.0 | 0.00 | 0.00 | 0.00 | 55 | 1408.3 |
| 20260504001605 | 11 | 218 | 0.0 | 0.0 | 0.00 | 0.00 | 0.00 | 54 | 1408.3 |
| 20260504001059 | 11 | 201 | 0.0 | 0.0 | 0.00 | 0.00 | 0.00 | 51 | 1408.2 |
| 20260504000552 | 12 | 201 | 0.0 | 0.0 | 0.00 | 0.00 | 0.00 | 50 | 1408.2 |
| 20260504000047 | 12 | 205 | 0.0 | 3.2 | 0.00 | 0.00 | 0.00 | 48 | 1408.2 |
| 20260503235541 | 12 | 201 | 0.0 | 3.2 | 0.00 | 0.00 | 0.00 | 49 | 1408.2 |
| 20260503235040 | 12 | 230 | 1.6 | 4.8 | 0.00 | 0.00 | 0.00 | 48 | 1408.2 |
| 20260503234541 | 12 | 237 | 3.2 | 6.4 | 0.00 | 0.00 | 0.00 | 46 | 1408.2 |
| 20260503233037 | 13 | 240 | 3.2 | 12.9 | 0.00 | 0.00 | 0.00 | 44 | 1408.3 |
| 20260503232537 | 13 | 263 | 4.8 | 12.9 | 0.00 | 0.00 | 0.00 | 43 | 1408.3 |
| 20260503232038 | 13 | 277 | 8.0 | 19.3 | 0.00 | 0.00 | 0.00 | 43 | 1408.3 |
| 20260503231538 | 13 | 207 | 8.0 | 19.3 | 0.00 | 0.00 | 0.00 | 42 | 1408.3 |
| 20260503231037 | 13 | 230 | 6.4 | 12.9 | 0.00 | 0.00 | 0.00 | 42 | 1408.2 |
| 20260503230037 | 13 | 254 | 4.8 | 12.9 | 0.00 | 0.00 | 0.00 | 41 | 1408.4 |
| 20260503225540 | 13 | 302 | 6.4 | 17.7 | 0.00 | 0.00 | 0.00 | 43 | 1408.4 |
| 20260503225033 | 13 | 240 | 8.0 | 17.7 | 0.00 | 0.00 | 0.00 | 42 | 1408.3 |
| 20260503224534 | 13 | 266 | 9.7 | 20.9 | 0.00 | 0.00 | 0.00 | 43 | 1408.4 |
| 20260503224033 | 13 | 252 | 8.0 | 20.9 | 0.00 | 0.00 | 0.00 | 43 | 1408.6 |
| 20260503223534 | 13 | 207 | 6.4 | 17.7 | 0.00 | 0.00 | 0.00 | 44 | 1408.6 |
| 20260503222533 | 13 | 232 | 8.0 | 19.3 | 0.00 | 0.00 | 0.00 | 42 | 1408.6 |
| 20260503221533 | 14 | 224 | 8.0 | 16.1 | 0.00 | 0.00 | 0.00 | 43 | 1408.6 |
| 20260503221034 | 14 | 233 | 6.4 | 16.1 | 0.00 | 0.00 | 0.00 | 42 | 1408.4 |
| 20260503220529 | 13 | 304 | 8.0 | 19.3 | 0.00 | 0.00 | 0.00 | 42 | 1408.6 |
| 20260503220029 | 13 | 262 | 12.9 | 25.7 | 0.00 | 0.00 | 0.00 | 42 | 1408.6 |
| 20260503215029 | 14 | 233 | 9.7 | 20.9 | 0.00 | 0.00 | 0.00 | 40 | 1408.4 |
| 20260503214530 | 14 | 297 | 9.7 | 29.0 | 0.00 | 0.00 | 0.00 | 39 | 1408.4 |
| 20260503214029 | 14 | 209 | 11.3 | 29.0 | 0.00 | 0.00 | 0.00 | 41 | 1408.4 |
| 20260503213529 | 14 | 263 | 11.3 | 22.5 | 0.00 | 0.00 | 0.00 | 42 | 1408.4 |
| 20260503212027 | 15 | 263 | 9.7 | 22.5 | 0.00 | 0.00 | 0.00 | 40 | 1408.3 |
| 20260503211527 | 14 | 266 | 9.7 | 22.5 | 0.00 | 0.00 | 0.00 | 42 | 1408.3 |
| 20260503210027 | 14 | 215 | 11.3 | 20.9 | 0.00 | 0.00 | 0.00 | 41 | 1408.6 |
| 20260503205527 | 14 | 305 | 12.9 | 27.4 | 0.00 | 0.00 | 0.00 | 40 | 1408.6 |
| 20260503204528 | 15 | 217 | 9.7 | 29.0 | 0.00 | 0.00 | 0.00 | 40 | 1408.8 |
| 20260503204028 | 14 | 240 | 9.7 | 17.7 | 0.00 | 0.00 | 0.00 | 43 | 1408.8 |
| 20260503203525 | 14 | 305 | 9.7 | 19.3 | 0.00 | 0.00 | 0.00 | 42 | 1409.0 |
| 20260503203026 | 15 | 284 | 8.0 | 20.9 | 0.00 | 0.00 | 0.00 | 43 | 1409.1 |
| 20260503202525 | 15 | 197 | 8.0 | 20.9 | 0.00 | 0.00 | 0.00 | 42 | 1409.1 |
| 20260503202025 | 15 | 283 | 9.7 | 17.7 | 0.00 | 0.00 | 0.00 | 42 | 1409.2 |
| 20260503201525 | 15 | 164 | 11.3 | 20.9 | 0.00 | 0.00 | 0.00 | 42 | 1409.4 |
| 20260503201026 | 15 | 244 | 8.0 | 20.9 | 0.00 | 0.00 | 0.00 | 42 | 1409.2 |
| 20260503200019 | 14 | 199 | 9.7 | 24.1 | 0.00 | 0.00 | 0.00 | 45 | 1409.4 |
| 20260503195512 | 13 | 206 | 14.5 | 29.0 | 0.00 | 0.00 | 0.00 | 44 | 1409.5 |
| 20260503195006 | 13 | 237 | 11.3 | 29.0 | 0.00 | 0.00 | 0.00 | 43 | 1409.5 |
| 20260503194500 | 13 | 225 | 4.8 | 20.9 | 0.00 | 0.00 | 0.00 | 45 | 1409.5 |
| 20260503193954 | 13 | 285 | 8.0 | 27.4 | 0.00 | 0.00 | 0.00 | 45 | 1409.8 |
| 20260503193448 | 13 | 261 | 12.9 | 27.4 | 0.00 | 0.00 | 0.00 | 42 | 1409.9 |
| 20260503192435 | 13 | 263 | 11.3 | 20.9 | 0.00 | 0.00 | 0.00 | 46 | 1409.9 |
| 20260503191929 | 13 | 237 | 11.3 | 29.0 | 0.00 | 0.00 | 0.00 | 44 | 1410.2 |
| 20260503191424 | 13 | 279 | 8.0 | 29.0 | 0.00 | 0.00 | 0.00 | 44 | 1410.2 |
| 20260503190918 | 13 | 284 | 8.0 | 16.1 | 0.00 | 0.00 | 0.00 | 44 | 1410.5 |
| 20260503190412 | 13 | 261 | 9.7 | 22.5 | 0.00 | 0.00 | 0.00 | 44 | 1410.5 |
| 20260503184854 | 13 | 156 | 9.7 | 19.3 | 0.00 | 0.00 | 0.00 | 48 | 1410.6 |
| 20260503184348 | 13 | 265 | 9.7 | 17.7 | 0.00 | 0.00 | 0.00 | 46 | 1410.9 |
| 20260503183842 | 13 | 217 | 6.4 | 17.7 | 0.00 | 0.00 | 0.00 | 45 | 1410.7 |
| 20260503183336 | 12 | 280 | 6.4 | 19.3 | 0.00 | 0.00 | 0.00 | 48 | 1410.7 |
| 20260503182830 | 12 | 246 | 8.0 | 22.5 | 0.00 | 0.00 | 0.00 | 44 | 1411.0 |
| 20260503182324 | 12 | 241 | 8.0 | 22.5 | 0.00 | 0.00 | 0.00 | 45 | 1410.9 |
| 20260503181818 | 12 | 251 | 9.7 | 19.3 | 0.00 | 0.00 | 0.00 | 45 | 1411.1 |
| 20260503181312 | 12 | 261 | 11.3 | 29.0 | 0.00 | 0.00 | 0.00 | 44 | 1411.3 |
| 20260503180806 | 13 | 273 | 12.9 | 29.0 | 0.00 | 0.00 | 0.00 | 44 | 1411.3 |
| 20260503180300 | 12 | 270 | 12.9 | 25.7 | 0.00 | 0.00 | 0.00 | 46 | 1411.3 |
| 20260503175754 | 12 | 232 | 12.9 | 24.1 | 0.00 | 0.00 | 0.00 | 46 | 1411.4 |
| 20260503175248 | 12 | 248 | 11.3 | 20.9 | 0.00 | 0.00 | 0.00 | 45 | 1411.5 |
| 20260503174742 | 12 | 242 | 11.3 | 20.9 | 0.00 | 0.00 | 0.00 | 43 | 1411.4 |
| 20260503174236 | 12 | 229 | 9.7 | 20.9 | 0.00 | 0.00 | 0.00 | 43 | 1411.5 |
| 20260503173729 | 12 | 271 | 11.3 | 19.3 | 0.00 | 0.00 | 0.00 | 45 | 1411.7 |
| 20260503173223 | 12 | 196 | 11.3 | 20.9 | 0.00 | 0.00 | 0.00 | 44 | 1411.8 |
| 20260503172718 | 12 | 257 | 8.0 | 20.9 | 0.00 | 0.00 | 0.00 | 45 | 1411.8 |
| 20260503172212 | 12 | 92 | 9.7 | 24.1 | 0.00 | 0.00 | 0.00 | 44 | 1411.8 |
| 20260503171706 | 12 | 319 | 8.0 | 24.1 | 0.00 | 0.00 | 0.00 | 45 | 1411.8 |
| 20260503171200 | 12 | 269 | 8.0 | 19.3 | 0.00 | 0.00 | 0.00 | 50 | 1411.9 |
| 20260503170654 | 12 | 225 | 8.0 | 19.3 | 0.00 | 0.00 | 0.00 | 48 | 1412.1 |
| 20260503170147 | 12 | 304 | 6.4 | 16.1 | 0.00 | 0.00 | 0.00 | 52 | 1412.1 |
| 20260503150536 | 9 | 237 | 8.0 | 20.9 | 0.00 | 0.00 | 0.00 | 54 | 1413.2 |
| 20260503131030 | 6 | 259 | 8.0 | 17.7 | 0.00 | 0.00 | 0.00 | 73 | 1413.7 |
| 20260503130525 | 6 | 248 | 6.4 | 17.7 | 0.00 | 0.00 | 0.00 | 75 | 1413.6 |
| 20260503100253 | 1 | 302 | 0.0 | 0.0 | 0.00 | 0.00 | 0.00 | 90 | 1411.8 |
| 20260503090141 | 2 | 273 | 3.2 | 6.4 | 0.00 | 0.00 | 0.00 | 89 | 1411.5 |
| 20260503081546 | 2 | 252 | 3.2 | 6.4 | 0.00 | 0.00 | 0.00 | 88 | 1411.4 |
| 20260503081041 | 2 | 250 | 1.6 | 4.8 | 0.00 | 0.00 | 0.00 | 88 | 1411.4 |
| 20260503072447 | 2 | 302 | 3.2 | 9.7 | 0.00 | 0.00 | 0.00 | 90 | 1411.0 |
| 20260503071941 | 2 | 272 | 3.2 | 9.7 | 0.00 | 0.00 | 0.00 | 91 | 1411.0 |
| 20260503071435 | 1 | 271 | 3.2 | 6.4 | 0.00 | 0.03 | 0.00 | 91 | 1411.0 |
| 20260503070929 | 1 | 275 | 1.6 | 4.8 | 0.00 | 0.03 | 0.00 | 91 | 1411.0 |
| 20260503054852 | 2 | 306 | 0.0 | 3.2 | 0.00 | 0.03 | 0.00 | 89 | 1411.0 |
| 20260503054351 | 2 | 323 | 0.0 | 3.2 | 0.00 | 0.03 | 0.00 | 89 | 1411.0 |
| 20260503053852 | 2 | 323 | 0.0 | 3.2 | 0.00 | 0.03 | 0.00 | 88 | 1411.0 |